Simultaneous Nadir Overpasses (SNOs) Predictions

Prediction of SNOs between GOES-17 and AQUA Satellite Orbit:

Table of predicted SNOs for the next 14.0 days since TLE Epoch: 2/18/2023
Index Date Time (GOES-17) GOES-17 Lat,Lon AQUA Lat,Lon Distance(km) Time Diff (sec)
1 02/18/2023 08:45:38 0.04,-104.67 0.07,-104.82 16.75 80
2 02/20/2023 08:29:36 0.04,-104.67 -0.59,-101.56 353.59 80
3 02/20/2023 20:50:41 -0.04,-104.69 -0.50,-106.67 226.27 80
4 02/22/2023 20:39:59 -0.04,-104.69 0.23,-103.42 145.18 80
5 02/23/2023 09:00:56 0.05,-104.68 0.84,-108.49 432.88 80
6 02/25/2023 08:47:32 0.05,-104.69 0.17,-105.22 60.80 80
7 02/27/2023 08:31:27 0.05,-104.70 -0.50,-101.95 311.64 80
8 02/27/2023 20:52:33 -0.06,-104.71 -0.53,-107.07 268.09 80
9 03/01/2023 20:41:47 -0.06,-104.71 0.15,-103.79 104.87 80
10 03/02/2023 09:02:43 0.06,-104.71 0.94,-108.86 472.51 80
11 03/03/2023 20:28:20 -0.07,-104.72 0.82,-100.51 478.30 80
